[[{"header":{"parameterUnit":"m.s-1","parameterCategory":1,"la1":30.2991,"la2":30.254,"lo1":-89.0895,"lo2":-89.0444,"dy":0.0017,"dx":0.0017,"nx":28,"ny":28,"refTime":"2024-05-29T21:00:00:Z","depth":0,"parameterNumber":2,"parameterNumberName":"U-component_of_WINDS"},"data":[0,0,0,0,0,0,0,0,0,0,0,0,0,0,0,0,0,0,0,0,0,0,0,0,0,0,0,0,0,0,0,0,0,0,0,0,0,0,0,0,0,0,0,0,0,0,0,0,0,0,0,0,0,0,0,0,0,0,-5.8117,-5.812,0,-5.8319,-5.8321,-5.8323,-5.8364,-5.8362,-5.8361,-5.836,-5.856,-5.8566,-5.8573,0,0,0,0,0,0,0,0,0,0,0,0,0,-5.7765,-5.7772,-5.8117,-5.812,-5.8122,-5.8318,-5.8321,-5.8324,-5.8364,-5.8362,-5.8361,-5.8359,-5.8557,-5.8565,-5.8573,0,0,0,0,0,0,0,0,0,0,0,0,0,-5.7937,-5.7774,-5.8117,-5.8166,-5.8173,-5.8318,-5.8321,-5.8324,-5.8365,-5.8362,-5.836,-5.8358,-5.8555,-5.8565,-5.8575,-5.8683,0,0,-5.8606,-5.861,0,0,0,0,0,0,0,0,-5.7928,-5.795,-5.8157,-5.8163,-5.8171,-5.8314,-5.827,-5.8444,-5.8365,-5.8292,-5.8359,-5.8357,-5.8479,-5.8496,-5.8538,-5.8692,-5.8701,-5.8606,-5.8613,-5.8617,-5.862,0,0,0,0,0,0,0,-5.7916,-5.7942,-5.8197,-5.8159,-5.8168,-5.8178,-5.8199,-5.8304,-5.8396,-5.8298,-5.8301,-5.8325,-5.8483,-5.8528,-5.8543,-5.8704,-5.8606,-5.8615,-5.8621,-5.8625,-5.8959,-5.8961,0,0,0,0,0,0,-5.7896,-5.7932,-5.819,-5.8203,-5.8041,-5.8186,-5.821,-5.827,-5.8395,-5.8412,-5.8327,-5.8326,-5.8512,-5.8531,-5.855,-5.8686,-5.8617,-5.8626,-5.8632,-5.8956,-5.8959,-5.8962,0,0,0,0,0,0,-5.7888,-5.7918,-5.8182,-5.8068,-5.8103,-5.8194,-5.8261,-5.8275,-5.8321,-5.8417,-5.8433,-5.8356,-5.8511,-5.8536,-5.865,-5.8693,-5.8631,-5.864,-5.8953,-5.8957,-5.8961,-5.8956,0,0,0,0,0,0,-5.7878,-5.7915,-5.7957,-5.8069,-5.8109,-5.8279,-5.8264,-5.8281,-5.8339,-5.834,-5.8449,-5.8464,-5.8511,-5.8635,-5.866,-5.8706,-5.8648,-5.8949,-5.8955,-5.896,-5.8953,-5.896,-5.8966,0,0,0,0,0,-5.7865,-5.7946,-5.7959,-5.799,-5.8164,-5.8282,-5.8304,-5.8358,-5.8342,-5.8385,-5.8447,-5.8461,-5.8685,-5.8646,-5.8675,-5.8724,-5.8947,-5.8953,-5.8959,-5.895,-5.8959,-5.8966,0,0,0,0,0,0,-5.7834,-5.7962,-5.7977,-5.8098,-5.8179,-5.8289,-5.8344,-5.8365,-5.8451,-5.8448,-5.851,-5.8534,-5.8645,-5.8697,-5.8651,-5.8837,-5.8815,-5.8827,-5.8798,-5.8807,-5.8813,-5.8797,-5.8656,0,0,0,0,0,-5.7842,-5.7929,-5.8035,-5.8131,-5.8171,-5.8251,-5.8304,-5.834,-5.8425,-5.8459,-5.8529,-5.8611,-5.87,-5.8757,-5.8844,-5.8963,-5.8987,-5.9011,-5.9017,-5.9022,-5.9031,-5.9098,-5.911,-5.8983,-5.8983,-5.8983,0,0,-5.7857,-5.7938,-5.7988,-5.8127,-5.8194,-5.8282,-5.8279,-5.8371,-5.8437,-5.8472,-5.8585,-5.864,-5.8735,-5.8853,-5.8908,-5.8899,-5.9072,-5.903,-5.9033,-5.9039,-5.9106,-5.9118,-5.9129,-5.8987,-5.8987,-5.8986,0,0,-5.793,-5.8001,-5.8089,-5.8157,-5.8261,-5.8314,-5.8335,-5.8443,-5.8482,-5.8597,-5.8626,-5.8705,-5.8857,-5.8924,-5.8978,-5.9082,-5.9098,-5.9109,-5.914,-5.9206,-5.9216,-5.9225,-5.9261,-5.9274,-5.9118,-5.9118,-5.9118,0,-5.7935,-5.807,-5.8131,-5.8223,-5.8283,-5.8324,-5.8414,-5.8477,-5.8602,-5.8642,-5.8632,-5.8826,-5.8893,-5.9027,-5.9053,-5.9095,-5.9121,-5.9095,-5.921,-5.922,-5.9229,-5.9264,-5.9278,-5.9119,-5.9119,-5.9119,-5.9119,0,-5.8072,-5.8165,-5.8224,-5.8347,-5.8415,-5.8505,-5.8579,-5.864,-5.8671,-5.8725,-5.8842,-5.8925,-5.9031,-5.9066,-5.9095,-5.9205,-5.9197,-5.9198,-5.9176,-5.9241,-5.9275,-5.9289,-5.912,-5.9119,-5.9119,-5.9119,0,0,-5.8126,-5.8286,-5.8306,-5.8363,-5.8482,-5.8555,-5.8648,-5.8754,-5.8805,-5.8892,-5.897,-5.9101,-5.9104,-5.9165,-5.9204,-5.9261,-5.9339,-5.9255,-5.9259,-5.9267,-5.9465,-5.9461,-5.9476,-5.9352,-5.9355,-5.9357,-5.9456,0,-5.8212,-5.8381,-5.844,-5.8579,-5.8666,-5.8708,-5.879,-5.8871,-5.8926,-5.9007,-5.9067,-5.9158,-5.9155,-5.9193,-5.9252,-5.9316,-5.9379,-5.9311,-5.9424,-5.9427,-5.9396,-5.9494,-5.9491,-5.958,-5.947,-5.9473,-5.9474,0,-5.8333,-5.8425,-5.8573,-5.8684,-5.8723,-5.8795,-5.8898,-5.8976,-5.907,-5.9106,-5.9177,-5.9213,-5.9312,-5.9288,-5.9425,-5.9377,-5.9428,-5.9467,-5.9472,-5.9482,-5.9452,-5.9505,-5.961,-5.9622,-5.9496,-5.9494,-5.9493,0,-5.8357,-5.8517,-5.8627,-5.8675,-5.8807,-5.8857,-5.8914,-5.9007,-5.9068,-5.9158,-5.9198,-5.9298,-5.9352,-5.9429,-5.9491,-5.9468,-5.9623,-5.9603,-5.9654,-5.9652,-5.9681,-5.9678,-5.9793,-5.9718,-5.9718,-5.9718,-5.9717,0,-5.8445,-5.8533,-5.8639,-5.8706,-5.8807,-5.8876,-5.8974,-5.9034,-5.9116,-5.9196,-5.9239,-5.9312,-5.9391,-5.9474,-5.9523,-5.9629,-5.9654,-5.9685,-5.9696,-5.968,-5.9675,-5.9711,-5.9705,-5.9721,-5.9721,-5.972,-5.9719,0,-5.8486,-5.856,-5.8683,-5.88,-5.8832,-5.8901,-5.9001,-5.9068,-5.9127,-5.9227,-5.9254,-5.9345,-5.9447,-5.9517,-5.9646,-5.968,-5.9794,-5.9805,-5.9762,-5.9767,-5.9813,-5.9807,-5.9953,-5.9976,-5.9887,-5.9888,-5.9889,0,-5.8535,-5.8605,-5.8732,-5.8789,-5.8847,-5.8939,-5.9002,-5.9074,-5.9138,-5.9253,-5.9306,-5.9411,-5.9498,-5.9658,-5.9735,-5.9835,-5.9848,-5.9893,-5.9863,-5.9845,-5.9847,-5.9841,-5.9848,-5.9896,-5.9896,-5.9897,-5.9897,0,-5.8616,-5.8651,-5.8741,-5.8847,-5.8922,-5.9008,-5.9093,-5.9138,-5.9224,-5.9294,-5.94,-5.9468,-5.9602,-5.9705,-5.9814,-5.9872,-5.9899,-5.9907,-5.9924,-5.9906,-5.9877,-5.9892,-5.9772,-5.9902,-5.9902,-5.9901,-5.9901,-5.9901,-5.8662,-5.8727,-5.8827,-5.8927,-5.9,-5.908,-5.915,-5.9219,-5.9309,-5.9425,-5.9462,-5.9571,-5.9667,-5.9815,-5.9876,-5.9962,-5.9959,-5.9983,-5.9989,-5.9993,-5.9992,-5.9866,-5.9982,-5.9982,-5.9982,-5.9982,-5.9982,0,-5.8744,-5.8811,-5.8903,-5.9024,-5.9103,-5.9126,-5.9224,-5.9288,-5.9384,-5.9472,-5.9559,-5.9681,-5.9782,-5.987,-5.9975,-6.0027,-6.0042,-6.0052,-6.0047,-6.0061,-5.9989,-5.9964,-6.0038,-6.0038,-6.0038,-6.0038,-6.0038,-6.0038,-5.8795,-5.8906,-5.8953,-5.9101,-5.9169,-5.9277,-5.9331,-5.9406,-5.9476,-5.9611,-5.9697,-5.9755,-5.9843,-5.9956,-6.005,-6.0073,-6.0109,-6.0116,-6.0141,-6.0072,-6.0065,-6.0059,-6.0035,-6.0124,-6.0124,-6.0206,-6.0206,-6.0207]},{"header":{"parameterUnit":"m.s-1","parameterCategory":1,"la1":30.2991,"la2":30.254,"lo1":-89.0895,"lo2":-89.0444,"dy":0.0017,"dx":0.0017,"nx":28,"ny":28,"refTime":"2024-05-29T21:00:00:Z","depth":0,"parameterNumber":3,"parameterNumberName":"V-component_of_WINDS"},"data":[0,0,0,0,0,0,0,0,0,0,0,0,0,0,0,0,0,0,0,0,0,0,0,0,0,0,0,0,0,0,0,0,0,0,0,0,0,0,0,0,0,0,0,0,0,0,0,0,0,0,0,0,0,0,0,0,0,0,4.0438,4.0438,0,4.0431,4.0431,4.0431,4.0418,4.0418,4.0418,4.0418,4.0405,4.0405,4.0405,0,0,0,0,0,0,0,0,0,0,0,0,0,4.0438,4.0438,4.0438,4.0438,4.0438,4.0431,4.0431,4.0431,4.0418,4.0418,4.0418,4.0418,4.0405,4.0405,4.0405,0,0,0,0,0,0,0,0,0,0,0,0,0,4.0435,4.0438,4.0438,4.0431,4.043,4.0431,4.0431,4.0431,4.0418,4.0418,4.0418,4.0418,4.0405,4.0405,4.0405,4.041,0,0,4.0404,4.0404,0,0,0,0,0,0,0,0,4.0435,4.0435,4.0432,4.0431,4.0431,4.0425,4.0426,4.0424,4.0419,4.0423,4.0418,4.0417,4.0412,4.0411,4.041,4.041,4.0409,4.0404,4.0404,4.0404,4.0404,0,0,0,0,0,0,0,4.0435,4.0435,4.0435,4.0432,4.0431,4.0427,4.0426,4.0426,4.0419,4.0422,4.0421,4.0421,4.0411,4.0411,4.041,4.0409,4.0404,4.0404,4.0404,4.0404,4.0414,4.0414,0,0,0,0,0,0,4.0437,4.0435,4.0435,4.0435,4.0432,4.0427,4.0427,4.0427,4.0419,4.0418,4.0421,4.0421,4.0411,4.041,4.0409,4.0416,4.0404,4.0404,4.0404,4.0414,4.0414,4.0415,0,0,0,0,0,0,4.0437,4.0437,4.0435,4.0435,4.0434,4.0428,4.0429,4.0427,4.0426,4.0418,4.0417,4.0422,4.0411,4.041,4.0411,4.0415,4.0404,4.0404,4.0413,4.0414,4.0414,4.0429,0,0,0,0,0,0,4.0437,4.0437,4.044,4.0435,4.0434,4.0438,4.0429,4.0427,4.0427,4.0426,4.0418,4.0417,4.041,4.0411,4.0411,4.0415,4.0404,4.0413,4.0413,4.0414,4.0428,4.043,4.0431,0,0,0,0,0,4.0437,4.0442,4.044,4.044,4.0438,4.0438,4.0438,4.0432,4.0427,4.0429,4.0425,4.0417,4.0415,4.0412,4.0411,4.0415,4.0412,4.0413,4.0414,4.0427,4.0429,4.0431,0,0,0,0,0,0,4.0445,4.0442,4.0439,4.0443,4.0441,4.0436,4.0438,4.0434,4.0432,4.0431,4.0422,4.0421,4.0423,4.0419,4.0415,4.042,4.0413,4.0414,4.0423,4.0425,4.0427,4.0427,4.0403,0,0,0,0,0,4.0448,4.045,4.0446,4.045,4.045,4.0445,4.0444,4.044,4.0438,4.0436,4.0431,4.0428,4.0427,4.0426,4.0424,4.0428,4.0426,4.043,4.0432,4.0434,4.0434,4.0437,4.0439,4.0417,4.0417,4.0417,0,0,4.0453,4.0451,4.0452,4.0452,4.045,4.0452,4.0444,4.0445,4.0446,4.0436,4.0437,4.0434,4.0429,4.0432,4.0433,4.0429,4.044,4.0435,4.0436,4.0435,4.0438,4.044,4.0442,4.0418,4.0418,4.0418,0,0,4.0462,4.0461,4.0465,4.0464,4.0463,4.046,4.0461,4.0457,4.0455,4.0457,4.045,4.0451,4.0448,4.0446,4.0444,4.0456,4.0449,4.0456,4.0465,4.0467,4.0469,4.0471,4.0475,4.0477,4.0457,4.0457,4.0457,0,4.0467,4.0471,4.0467,4.047,4.047,4.0464,4.0468,4.0467,4.0464,4.0464,4.046,4.0459,4.0455,4.0458,4.0461,4.046,4.0461,4.0456,4.047,4.0471,4.0472,4.0476,4.0478,4.0457,4.0457,4.0457,4.0457,0,4.0478,4.0481,4.0484,4.0484,4.0485,4.0488,4.0484,4.0485,4.0482,4.0479,4.0482,4.0478,4.0476,4.0476,4.0472,4.0479,4.0477,4.0471,4.0463,4.0475,4.0479,4.048,4.0458,4.0458,4.0458,4.0458,0,0,4.049,4.0491,4.0492,4.0493,4.0492,4.0493,4.0496,4.0497,4.0498,4.0497,4.0499,4.0499,4.0495,4.0493,4.0489,4.0492,4.0502,4.0486,4.0486,4.0489,4.051,4.0514,4.0516,4.0499,4.0499,4.0499,4.0511,0,4.0499,4.0506,4.0504,4.051,4.0513,4.0508,4.0511,4.0511,4.0509,4.051,4.0507,4.0508,4.0502,4.0501,4.0504,4.05,4.0506,4.0499,4.0499,4.05,4.05,4.0518,4.0521,4.0533,4.0512,4.0513,4.0513,0,4.051,4.0512,4.0519,4.052,4.0521,4.0524,4.0525,4.0527,4.0526,4.0525,4.0525,4.052,4.0523,4.0517,4.052,4.0516,4.0516,4.0515,4.0515,4.0514,4.0506,4.0517,4.0536,4.0538,4.0515,4.0515,4.0515,0,4.0518,4.0523,4.0528,4.0529,4.053,4.0532,4.0532,4.0532,4.0533,4.0534,4.0534,4.0535,4.0535,4.0535,4.0531,4.0526,4.0535,4.0528,4.0533,4.0533,4.0534,4.0534,4.0553,4.0535,4.0535,4.0535,4.0535,0,4.0528,4.0533,4.0532,4.0536,4.0541,4.0539,4.0544,4.0544,4.0544,4.0546,4.0542,4.0544,4.0539,4.0541,4.0537,4.0541,4.0541,4.054,4.0538,4.054,4.054,4.0539,4.0538,4.0536,4.0536,4.0535,4.0535,0,4.0537,4.0538,4.0543,4.0545,4.0546,4.0549,4.055,4.0553,4.0552,4.0556,4.0556,4.0554,4.0556,4.0553,4.0553,4.0551,4.0557,4.0555,4.0558,4.0557,4.0562,4.0562,4.0581,4.0583,4.0565,4.0565,4.0565,0,4.0543,4.0548,4.055,4.0553,4.0554,4.0558,4.056,4.0558,4.056,4.0561,4.0564,4.0566,4.0568,4.0572,4.0569,4.057,4.0568,4.0575,4.0568,4.0569,4.0568,4.0567,4.0568,4.0575,4.0576,4.0576,4.0576,0,4.0554,4.0555,4.0559,4.0563,4.0566,4.0569,4.0571,4.0573,4.0571,4.0574,4.0577,4.0579,4.0581,4.0584,4.0585,4.0584,4.0579,4.0579,4.058,4.0581,4.0582,4.0582,4.0561,4.0578,4.0578,4.0577,4.0577,4.0577,4.0562,4.0566,4.057,4.0574,4.0576,4.0579,4.0583,4.0583,4.0587,4.059,4.0589,4.0593,4.0593,4.0595,4.0595,4.0597,4.0594,4.0596,4.0596,4.0597,4.0598,4.0583,4.0597,4.0597,4.0597,4.0597,4.0597,0,4.0573,4.0576,4.058,4.0585,4.0589,4.0587,4.059,4.0593,4.0597,4.0599,4.0602,4.0606,4.0609,4.0608,4.0611,4.0613,4.0611,4.0613,4.0613,4.0613,4.06,4.0599,4.0615,4.0615,4.0615,4.0615,4.0615,4.0615,4.0579,4.0586,4.0587,4.0595,4.0598,4.0603,4.0605,4.0608,4.061,4.0615,4.0618,4.0619,4.062,4.0623,4.0625,4.0625,4.0625,4.0629,4.0627,4.0615,4.0613,4.0612,4.0611,4.0629,4.0629,4.064,4.064,4.064]}]]